Regional Weather Roundup
Issued by NWS

Home | Current Version | Previous Version | Text Only | Print | Product List | Glossary Off
Versions: 1 2 3 4 5 6 7 8 9 10 11 12 13 14 15 16 17 18 19 20 21 22 23 24 25 26 27 28 29 30 31 32 33 34 35 36 37 38 39 40 41 42 43 44 45 46 47 48 49 50

000
ASUS45 KBOU 062007
RWRCO

WEATHER ROUNDUP FOR COLORADO
NATIONAL WEATHER SERVICE DENVER/BOULDER CO
200 PM MDT WED MAY 06 2015

NOTE: "FAIR" INDICATES FEW OR NO CLOUDS BELOW 12000 FEET WITH NO
SIGNIFICANT WEATHER AND/OR OBSTRUCTIONS TO VISIBILITY.

COZ001>005-013-030-031-062100-
...NORTHWEST COLORADO...

CITY           SKY/WX    TMP DP  RH WIND       PRES   REMARKS
CRAIG          CLOUDY    54  43  66 SW12      29.80F
HAYDEN         CLOUDY    52  39  62 NW8       29.81F
MEEKER         CLOUDY    52  47  83 MISG      29.82F
MOUNT WERNER   NOT AVBL
STEAMBOAT SPGS CLOUDY    47  42  81 NE3       29.82F
WALDEN         CLOUDY    50  41  71 N7        29.80F
$$

COZ006>008-011-062100-
...WEST CENTRAL VALLEYS...

CITY           SKY/WX    TMP DP  RH WIND       PRES   REMARKS
GRAND JUNCTION LGT RAIN  56  52  86 E10       29.78F
MONTROSE       LGT RAIN  54  46  74 NW17      29.86R
EAGLE          PTSUNNY   55  43  62 SW13      29.83F
RIFLE          LGT RAIN  53  44  71 NW3       29.81F
DELTA          CLOUDY    56  48  73 CALM      29.84R THUNDER
NUCLA          CLOUDY    54  43  66 W13G18    29.89R THUNDER
$$

COZ017>023-064>068-062100-
...SOUTHWEST COLORADO...

CITY           SKY/WX    TMP DP  RH WIND       PRES   REMARKS
DURANGO        PTSUNNY   60  42  51 SW16G24   29.91F
CORTEZ         PTSUNNY   64  45  49 S20       29.88F
PAGOSA SPRINGS PTSUNNY   57  35  43 W9G25     29.93F THUNDER
TELLURIDE      PTSUNNY   48  32  54 SE6       29.99F
WOLF CREEK PAS NOT AVBL
$$

COZ009-010-012-014-032>034-037-058>063-062100-
...CENTRAL COLORADO...

CITY           SKY/WX    TMP DP  RH WIND       PRES   REMARKS
ASPEN          PTSUNNY   50  40  68 NW8       29.85F
BUENA VISTA    NOT AVBL
COPPER MTN     CLOUDY    37  34  87 W16G26    29.99F
BERTHOUD PASS  CLOUDY    30  23  74 NW24G33   29.99S WCI  16
COTTONWOOD PAS PTSUNNY   46  32  57 W16G31    29.91S
GUNNISON       PTSUNNY   55  37  50 W21G28    29.89F
KREMMLING      PTSUNNY   55  41  58 SW10      29.83F
LEADVILLE      PTSUNNY   46  33  60 NW14G20   29.91S
MONARCH PASS   CLOUDY    32  30  93 MISG      30.11R
SALIDA         PTSUNNY   58  38  47 SW24      29.91R
SUNLIGHT       TSTM      36  36 100 CALM      30.00S VSB 1/4
WILKERSON PASS PTSUNNY   41  41 100 SW6       29.98S
$$

COZ069>075-062100-
...SAN LUIS VALLEY/SANGRE DE CRISTO MOUNTAINS...

CITY           SKY/WX    TMP DP  RH WIND       PRES   REMARKS
ALAMOSA        MOSUNNY   63  35  35 SW30G38   29.83F
LA VETA PASS   LGT RAIN N/A N/A N/A MISG      29.94S
SAGUACHE       DRIZZLE   46  43  87 NE7       29.89F
$$

COZ035-036-038>040-062100-
...NORTHERN COLORADO FRONT RANGE...

CITY           SKY/WX    TMP DP  RH WIND       PRES   REMARKS
DENVER INTL AP CLOUDY    61  47  59 N12       29.70S
DMNS CITY PARK   N/A     61  46  57 E7G16     29.70R
AURORA         PTSUNNY   61  47  62 N7        29.72R
FRONT RANGE AP PTSUNNY   61  50  67 N6        29.72S
ERIE MUNI ARPT CLOUDY    63  49  58 NE6       29.68F
BOULDER MUN AP CLOUDY    61  48  63 E8        29.68F
CENTENNIAL     CLOUDY    60  45  57 NE8       29.71R
BROOMFIELD     NOT AVBL
FORT COLLINS   CLOUDY    59  48  67 S6        29.69F
LONGMONT       CLOUDY    66  50  56 CALM      29.69F
$$

COZ041-046-047-076>085-087-088-062100-
...PIKES PEAK/PALMER DIVIDE AND SOUTHERN FOOTHILLS...

CITY           SKY/WX    TMP DP  RH WIND       PRES   REMARKS
COLO. SPRINGS  PTSUNNY   63  47  55 S9        29.72F THUNDER
A. F. ACADEMY  PTSUNNY   52  46  82 SE6       29.73S THUNDER
ELLICOTT       PTSUNNY  N/A N/A N/A S7        29.72F THUNDER
FALCON         CLOUDY    59  42  53 NE9       29.77S THUNDER
FORT CARSON    LGT RAIN  63  51  65 E7        29.69F
LIMON          PTSUNNY   61  45  55 NW15      29.71R
MONUMENT HILL  CLOUDY    55  43  62 E8        29.74F
TRINIDAD       CLOUDY    69  41  36 S8        29.73F
$$

COZ042>045-048>051-090-091-062100-
...NORTHEAST COLORADO...

CITY           SKY/WX    TMP DP  RH WIND       PRES   REMARKS
GREELEY ARPT   CLOUDY    59 N/A N/A W6        29.67F
AKRON          RAIN      55  54  96 W16G23    29.63F FOG
BURLINGTON     PTSUNNY   64  48  56 SW8       29.67F
WRAY           RAIN      59  55  86 SW9       29.62S
STERLING       CLOUDY    63  54  72 N13G22    29.59S
HOLYOKE        NOT AVBL
FORT MORGAN    DRIZZLE   58  53  85 W14       29.65S
$$

COZ086-089-092>099-062100-
...SOUTHEAST COLORADO...

CITY           SKY/WX    TMP DP  RH WIND       PRES   REMARKS
PUEBLO         MOSUNNY   69  45  41 S8        29.66F
LA JUNTA       MOSUNNY   73  50  44 VRB6      29.66F
LAMAR          PTSUNNY   72  53  51 CALM      29.64F
SPRINGFIELD      N/A     74  45  35 MISG      29.68F
$$



USA.gov is the U.S. government's official web portal to all federal, state and local government web resources and services.